Weather History for KTXK - January, 2013

Change the Weather History Date:

Friday, January 4, 2013

  Actual Average Record
Temperature  
Mean Temperature 40 °F 43 °F  
Max Temperature 51 °F 53 °F 81 °F (1997)
Min Temperature 29 °F 34 °F 12 °F (1959)
Degree Days  
Heating Degree Days 25 22  
Month to date heating degree days 104 88  
Since 1 July heating degree days 1002 1155  
Cooling Degree Days 0 0  
Month to date cooling degree days 0 0  
Year to date cooling degree days 0 0  
Moisture  
Dew Point 28 °F    
Average Humidity 61    
Maximum Humidity 92    
Minimum Humidity 29    
Precipitation  
Precipitation T in 0.13 in 2.01 in (1934)
Month to date precipitation 0.01 0.51  
Year to date precipitation 0.01 0.51  
Snow  
Snow 0.00 in - - ()
Month to date snowfall 0.0  
Since 1 July snowfall 2.0  
Snow Depth 0.00 in    
Sea Level Pressure  
Sea Level Pressure 30.45 in    
Wind  
Wind Speed 2 mph (NNE)    
Max Wind Speed 10 mph    
Max Gust Speed 15 mph    
Visibility 10 miles    
Events      
T = Trace of Precipitation, MM = Missing Value Source: NWS Daily Summary

Daily Weather History Graph

Daily Weather History Graph

Search for Another Location

Airport or City:

Trip Planner

Search our weather history database for the weather conditions in past years. The results will help you decide how hot, cold, wet, or windy it might be!

Date:

Astronomy

Jan. 04, 2013 Rise Set
Actual Time 7:20 AM CST 5:21 PM CST
Civil Twilight 6:53 AM CST 5:49 PM CST
Nautical Twilight 6:22 AM CST 6:20 PM CST
Astronomical Twilight 5:52 AM CST 6:50 PM CST
Moon No Moon Rise 11:26 AM CST (1/4)
Length of Visible Light 10h 55m
Length of Day
10h 01m
Waning Gibbous, 55% of the Moon is Illuminated
Jan 4
Waning Gibbous
Jan 4
Last Quarter
Jan 11
New
Jan 18
First Quarter
Jan 26
Full

Hourly Weather History & Observations

Time (CST) Temp. Windchill Dew Point Humidity Pressure Visibility Wind Dir Wind Speed Gust Speed Precip Events Conditions
12:53 AM 37.0 °F - 32.0 °F 82% 30.45 in 10.0 mi Calm Calm - N/A   Overcast
1:53 AM 37.0 °F - 30.9 °F 79% 30.45 in 10.0 mi Calm Calm - N/A   Overcast
2:53 AM 35.1 °F - 30.0 °F 82% 30.43 in 10.0 mi Calm Calm - N/A   Partly Cloudy
3:53 AM 30.9 °F 27.5 °F 28.9 °F 92% 30.44 in 10.0 mi NNE 3.5 mph - N/A   Clear
4:53 AM 32.0 °F - 30.0 °F 92% 30.43 in 10.0 mi Calm Calm - N/A   Clear
5:53 AM 30.0 °F - 28.0 °F 92% 30.49 in 10.0 mi Calm Calm - N/A   Mostly Cloudy
6:53 AM 32.0 °F - 30.0 °F 92% 30.49 in 10.0 mi Calm Calm - N/A   Clear
7:53 AM 34.0 °F 31.0 °F 30.9 °F 89% 30.51 in 10.0 mi NW 3.5 mph - N/A   Clear
8:53 AM 37.0 °F - 30.9 °F 79% 30.53 in 10.0 mi Calm Calm - N/A   Overcast
9:53 AM 39.9 °F 37.8 °F 30.9 °F 70% 30.52 in 10.0 mi NNE 3.5 mph - N/A   Scattered Clouds
10:53 AM 44.1 °F 42.5 °F 28.0 °F 53% 30.53 in 10.0 mi NNE 3.5 mph - N/A   Overcast
11:53 AM 45.0 °F 43.5 °F 27.0 °F 49% 30.50 in 10.0 mi NNE 3.5 mph - N/A   Overcast
12:53 PM 48.9 °F - 24.1 °F 38% 30.46 in 10.0 mi North 8.1 mph - N/A   Mostly Cloudy
1:53 PM 48.9 °F - 18.0 °F 29% 30.43 in 10.0 mi North 6.9 mph - N/A   Overcast
2:53 PM 48.9 °F - 21.0 °F 33% 30.42 in 10.0 mi NNE 8.1 mph - N/A   Overcast
3:53 PM 48.9 °F - 23.0 °F 36% 30.42 in 10.0 mi North 6.9 mph - N/A   Overcast
4:53 PM 48.0 °F - 24.1 °F 39% 30.42 in 10.0 mi North 4.6 mph - N/A   Overcast
5:53 PM 46.9 °F - 27.0 °F 46% 30.42 in 10.0 mi Calm Calm - N/A   Overcast
6:53 PM 43.0 °F - 32.0 °F 65% 30.41 in 10.0 mi Calm Calm - N/A   Overcast
7:53 PM 39.9 °F - 28.0 °F 63% 30.42 in 10.0 mi Calm Calm - N/A   Clear
8:53 PM 41.0 °F - 33.1 °F 73% 30.42 in 10.0 mi Calm Calm - N/A   Clear
9:53 PM 43.0 °F 41.3 °F 27.0 °F 53% 30.40 in 10.0 mi ESE 3.5 mph - N/A   Overcast
10:53 PM 43.0 °F - 26.1 °F 51% 30.39 in 10.0 mi Calm Calm - 0.00 in   Overcast
11:53 PM 39.9 °F - 33.1 °F 77% 30.39 in 10.0 mi Calm Calm - 0.00 in   Overcast